This demonstration page uses our WeatherBlox Daily Observations layout. Learn more.

39.29038, -76.61219

Hourly Observations for April 19, 2016

Temp ( °F °C ) Dew Point ( °F °C ) Humidity (%) Winds ( mph kmh ) Pressure ( in mb ) Visibility ( mi km ) Precip ( " mm )
1:54 am 01:54 undefined 65 18.3 37 2.8 36 36 undefined N/A 30.07 1018 N/A 0 0
2:54 am 02:54 undefined 65 18.3 38 3.3 37 37 undefined N/A 30.05 1018 N/A 0 0
3:54 am 03:54 undefined 65 18.3 36 2.2 34 34 undefined N/A 30.04 1017 N/A 0 0
4:54 am 04:54 undefined 64 17.8 37 2.8 37 37 undefined N/A 30.04 1017 N/A 0 0
5:54 am 05:54 undefined 63 17.2 36 2.2 37 37 undefined N/A 30.04 1017 N/A 0 0
6:54 am 06:54 undefined 62 16.7 36 2.2 38 38 undefined N/A 30.04 1017 N/A 0 0
7:54 am 07:54 undefined 68 20 36 2.2 31 31 undefined N/A 30.04 1017 N/A 0 0
8:54 am 08:54 undefined 73 22.8 36 2.2 26 26 undefined N/A 30.03 1017 N/A 0 0
9:54 am 09:54 undefined 77 25 37 2.8 24 24 undefined N/A 30.02 1017 N/A 0 0
10:54 am 10:54 undefined 79 26.1 40 4.4 25 25 undefined N/A 30.01 1016 N/A 0 0
11:54 am 11:54 undefined 80 26.7 41 5 25 25 undefined N/A 30 1016 N/A 0 0
12:54 pm 12:54 undefined 80 26.7 42 5.6 26 26 undefined N/A 29.99 1016 N/A 0 0
1:54 pm 13:54 undefined 82 27.8 42 5.6 24 24 undefined N/A 29.99 1016 N/A 0 0
2:54 pm 14:54 undefined 79 26.1 43 6.1 28 28 undefined N/A 30.01 1016 N/A 0 0
3:54 pm 15:54 undefined 77 25 45 7.2 32 32 undefined N/A 30.03 1017 N/A 0 0
4:54 pm 16:54 undefined 73 22.8 34 1.1 24 24 undefined N/A 30.04 1017 N/A 0 0
5:54 pm 17:54 undefined 71 21.7 31 -0.6 23 23 undefined N/A 30.06 1018 N/A 0 0
7:54 pm 19:54 undefined 68 20 29 -1.7 23 23 undefined N/A 30.09 1019 N/A 0 0
8:54 pm 20:54 undefined 66 18.9 31 -0.6 27 27 undefined N/A 30.11 1020 N/A 0 0
9:54 pm 21:54 undefined 64 17.8 30 -1.1 28 28 undefined N/A 30.14 1021 N/A 0 0
10:54 pm 22:54 undefined 62 16.7 27 -2.8 26 26 undefined N/A 30.16 1021 N/A 0 0
11:54 pm 23:54 undefined 60 15.6 20 -6.7 21 21 undefined N/A 30.17 1022 N/A 0 0

Powered by AerisWeather